ARG1221 SBSV-SAEZ

Flight info

Callsign ARG1221
Flight time N/A
Altitude 40000
Route GILDO UZ21 VUNOX DCT LOKAM UZ85 RAXIT DCT SAVLU DCT UMRUD UN741 PAPIX
Aircraft A332/H-SDE3GHIJ2J3J5M1RVWXYZ/LB2D1

Departure

Time 2026-05-01 14:49
Airport Deputado Luiz Eduardo Magalhães International Airport (SBSV)

Arrival

Time N/A
Airport Ezeiza International Airport - Ministro Pistarini (SAEZ)
Time Latitude Longitude Altitude Speed Heading
2026-05-01 14:22 -12.91348 -38.33228 47 ft 0 kts 209°
2026-05-01 14:41 -12.91345 -38.33226 47 ft 3 kts 209°
2026-05-01 14:42 -12.91328 -38.33217 47 ft 3 kts 209°
2026-05-01 14:42 -12.91312 -38.33208 47 ft 3 kts 216°
2026-05-01 14:42 -12.91299 -38.33193 47 ft 3 kts 268°
2026-05-01 14:42 -12.91299 -38.33183 47 ft 0 kts 281°
2026-05-01 14:45 -12.91298 -38.33190 47 ft 0 kts 281°
2026-05-01 14:46 -12.91293 -38.33252 47 ft 11 kts 269°
2026-05-01 14:46 -12.91245 -38.33322 47 ft 13 kts 318°
2026-05-01 14:47 -12.91190 -38.33393 47 ft 12 kts 289°
2026-05-01 14:47 -12.91192 -38.33481 47 ft 13 kts 258°
2026-05-01 14:47 -12.91186 -38.33568 47 ft 12 kts 302°
2026-05-01 14:48 -12.91100 -38.33511 48 ft 10 kts 84°
2026-05-01 14:48 -12.91077 -38.33357 46 ft 47 kts 79°
2026-05-01 14:48 -12.90765 -38.31827 53 ft 167 kts 78°
2026-05-01 14:49 -12.90180 -38.29174 1146 ft 211 kts 77°
2026-05-01 14:49 -12.89747 -38.25923 2472 ft 253 kts 107°
2026-05-01 14:50 -12.91215 -38.24070 3459 ft 261 kts 154°
2026-05-01 14:50 -12.95453 -38.25450 5624 ft 270 kts 238°
2026-05-01 14:51 -12.96322 -38.27165 6466 ft 273 kts 244°
2026-05-01 14:51 -12.97990 -38.30706 8075 ft 282 kts 243°
2026-05-01 14:52 -12.99809 -38.34333 9651 ft 290 kts 242°
2026-05-01 14:52 -13.00758 -38.36181 10334 ft 298 kts 242°
2026-05-01 14:52 -13.02691 -38.40238 10939 ft 336 kts 252°
2026-05-01 14:53 -13.03237 -38.42585 11309 ft 349 kts 258°
2026-05-01 14:53 -13.03689 -38.45056 11857 ft 355 kts 259°
2026-05-01 14:53 -13.04136 -38.47565 12449 ft 360 kts 259°
2026-05-01 14:53 -13.04594 -38.50102 13034 ft 364 kts 259°
2026-05-01 14:54 -13.05060 -38.52665 13600 ft 368 kts 259°
2026-05-01 14:54 -13.05536 -38.55257 14147 ft 371 kts 259°
2026-05-01 14:54 -13.06017 -38.57872 14673 ft 375 kts 258°
2026-05-01 14:54 -13.06503 -38.60511 15180 ft 379 kts 258°
2026-05-01 14:55 -13.06994 -38.63177 15669 ft 382 kts 258°
2026-05-01 14:55 -13.07483 -38.65827 16133 ft 385 kts 258°
2026-05-01 14:55 -13.07983 -38.68539 16586 ft 388 kts 259°
2026-05-01 14:55 -13.08515 -38.71263 17022 ft 391 kts 256°
2026-05-01 14:56 -13.09371 -38.73922 17439 ft 394 kts 245°
2026-05-01 14:56 -13.10621 -38.76430 17836 ft 397 kts 240°
2026-05-01 14:56 -13.12039 -38.78871 18218 ft 400 kts 237°
2026-05-01 14:56 -13.13545 -38.81282 18584 ft 403 kts 236°
2026-05-01 14:57 -13.15085 -38.83690 18935 ft 405 kts 236°
2026-05-01 14:57 -13.18164 -38.88531 19602 ft 410 kts 237°
2026-05-01 14:57 -13.19707 -38.90999 19912 ft 412 kts 237°
2026-05-01 14:58 -13.21251 -38.93488 20211 ft 415 kts 237°
2026-05-01 14:58 -13.22796 -38.95997 20495 ft 417 kts 237°
2026-05-01 14:58 -13.24348 -38.98523 20770 ft 419 kts 237°
2026-05-01 14:58 -13.25904 -39.01060 21038 ft 421 kts 237°
2026-05-01 14:59 -13.27469 -39.03611 21294 ft 423 kts 237°
2026-05-01 14:59 -13.29041 -39.06173 21542 ft 425 kts 237°
2026-05-01 14:59 -13.30598 -39.08712 21779 ft 427 kts 237°
2026-05-01 14:59 -13.32184 -39.11296 22013 ft 429 kts 237°
2026-05-01 15:00 -13.35377 -39.16500 22462 ft 432 kts 237°
2026-05-01 15:00 -13.36982 -39.19118 22674 ft 434 kts 237°
2026-05-01 15:00 -13.38594 -39.21747 22880 ft 436 kts 237°
2026-05-01 15:01 -13.40211 -39.24386 23078 ft 437 kts 237°
2026-05-01 15:01 -13.41835 -39.27036 23268 ft 439 kts 237°
2026-05-01 15:01 -13.43482 -39.29632 23455 ft 440 kts 234°
2026-05-01 15:01 -13.45428 -39.32066 23636 ft 442 kts 226°
2026-05-01 15:02 -13.47694 -39.34200 23805 ft 443 kts 219°
2026-05-01 15:02 -13.48497 -39.34879 23860 ft 444 kts 218°
2026-05-01 15:02 -13.52586 -39.38087 24130 ft 446 kts 216°
2026-05-01 15:02 -13.55107 -39.39961 24290 ft 447 kts 215°
2026-05-01 15:03 -13.57638 -39.41822 24441 ft 449 kts 215°
2026-05-01 15:03 -13.60183 -39.43693 24590 ft 450 kts 215°
2026-05-01 15:03 -13.62724 -39.45572 24731 ft 451 kts 216°
2026-05-01 15:03 -13.65237 -39.47441 24867 ft 452 kts 216°
2026-05-01 15:04 -13.67786 -39.49346 24998 ft 453 kts 216°
2026-05-01 15:04 -13.70335 -39.51256 25127 ft 454 kts 216°
2026-05-01 15:04 -13.72890 -39.53174 25254 ft 455 kts 216°
2026-05-01 15:04 -13.75451 -39.55099 25376 ft 456 kts 216°
2026-05-01 15:05 -13.78019 -39.57028 25498 ft 458 kts 216°
2026-05-01 15:05 -13.80593 -39.58962 25616 ft 459 kts 216°
2026-05-01 15:05 -13.83171 -39.60900 25729 ft 459 kts 216°
2026-05-01 15:05 -13.85719 -39.62815 25839 ft 460 kts 216°
2026-05-01 15:06 -13.88308 -39.64761 25947 ft 461 kts 216°
2026-05-01 15:06 -13.90901 -39.66711 26055 ft 462 kts 216°
2026-05-01 15:06 -13.93502 -39.68667 26161 ft 463 kts 216°
2026-05-01 15:06 -13.96105 -39.70626 26264 ft 464 kts 216°
2026-05-01 15:07 -13.98714 -39.72590 26365 ft 465 kts 216°
2026-05-01 15:07 -14.01325 -39.74555 26463 ft 466 kts 216°
2026-05-01 15:07 -14.03944 -39.76526 26559 ft 467 kts 216°
2026-05-01 15:07 -14.06529 -39.78474 26651 ft 467 kts 216°
2026-05-01 15:08 -14.09158 -39.80454 26742 ft 468 kts 216°
2026-05-01 15:08 -14.11787 -39.82435 26831 ft 469 kts 216°
2026-05-01 15:08 -14.14421 -39.84421 26921 ft 470 kts 216°
2026-05-01 15:08 -14.17060 -39.86411 27006 ft 470 kts 216°
2026-05-01 15:09 -14.19704 -39.88405 27091 ft 471 kts 216°
2026-05-01 15:09 -14.22350 -39.90403 27173 ft 472 kts 216°
2026-05-01 15:09 -14.25003 -39.92405 27253 ft 473 kts 216°
2026-05-01 15:09 -14.27619 -39.94380 27331 ft 473 kts 216°
2026-05-01 15:10 -14.30279 -39.96389 27409 ft 474 kts 216°
2026-05-01 15:10 -14.35604 -40.00412 27553 ft 475 kts 216°
2026-05-01 15:10 -14.38272 -40.02429 27622 ft 476 kts 216°
2026-05-01 15:11 -14.40944 -40.04449 27691 ft 476 kts 216°
2026-05-01 15:11 -14.46296 -40.08498 27821 ft 478 kts 216°
2026-05-01 15:11 -14.48941 -40.10500 27883 ft 478 kts 216°
2026-05-01 15:12 -14.51624 -40.12530 27946 ft 479 kts 216°
2026-05-01 15:12 -14.57000 -40.16602 28070 ft 480 kts 216°
2026-05-01 15:12 -14.59693 -40.18643 28128 ft 480 kts 216°
2026-05-01 15:13 -14.67786 -40.24780 28297 ft 482 kts 216°
2026-05-01 15:14 -14.73155 -40.28855 28401 ft 483 kts 216°
2026-05-01 15:14 -14.81286 -40.35031 28549 ft 484 kts 216°
2026-05-01 15:15 -14.92115 -40.43266 28724 ft 486 kts 216°
2026-05-01 15:16 -15.03014 -40.51563 28882 ft 487 kts 216°
2026-05-01 15:18 -15.16636 -40.61950 29058 ft 489 kts 216°
2026-05-01 15:19 -15.27592 -40.70316 29185 ft 490 kts 216°
2026-05-01 15:19 -15.35785 -40.76579 29274 ft 491 kts 216°
2026-05-01 15:20 -15.44025 -40.82886 29352 ft 491 kts 216°
2026-05-01 15:21 -15.49524 -40.87098 29404 ft 492 kts 216°
2026-05-01 15:21 -15.55027 -40.91316 29448 ft 492 kts 216°
2026-05-01 15:22 -15.63252 -40.97624 29508 ft 493 kts 216°
2026-05-01 15:22 -15.68762 -41.01854 29549 ft 493 kts 216°
2026-05-01 15:23 -15.73345 -41.05375 29582 ft 493 kts 216°
2026-05-01 15:23 -15.78860 -41.09615 29625 ft 494 kts 216°
2026-05-01 15:24 -15.84382 -41.13863 29660 ft 494 kts 216°
2026-05-01 15:24 -15.89903 -41.18112 29694 ft 494 kts 216°
2026-05-01 15:25 -15.95429 -41.22369 29729 ft 495 kts 216°
2026-05-01 15:25 -16.00918 -41.26600 29759 ft 495 kts 216°
2026-05-01 15:26 -16.06449 -41.30865 29790 ft 495 kts 216°
2026-05-01 15:26 -16.11981 -41.35134 29817 ft 495 kts 216°
2026-05-01 15:27 -16.17514 -41.39407 29844 ft 495 kts 216°
2026-05-01 15:28 -16.25779 -41.45795 29885 ft 496 kts 216°
2026-05-01 15:28 -16.31316 -41.50079 29908 ft 496 kts 216°
2026-05-01 15:29 -16.39622 -41.56511 29941 ft 496 kts 216°
2026-05-01 15:30 -16.50666 -41.65074 29984 ft 497 kts 216°
2026-05-01 15:31 -16.67296 -41.77991 30035 ft 497 kts 216°
2026-05-01 15:32 -16.78344 -41.86589 30065 ft 497 kts 216°
2026-05-01 15:34 -16.94942 -41.99532 30107 ft 498 kts 216°